Powrót do katalogu

STARLINK-32281

AktywnyŁącznośćVLEO
NORAD 60375·PAYLOAD·🇺🇸 United States

Wystrzelony Aug 4, 2024 z Vandenberg Space Force Base

Loading…

Następne Przeloty (najbliższe 24 godziny)

TLE

ŚwieżeSource: CelesTrak SupGP

Epoka: Sep 14, 2026, 22:17 UTC

1 60375C 24138W   26257.92895833 -.00058541  00000+0 -17293-2 0  2573
2 60375  53.1571 147.9028 0001854  82.4333 114.9281 15.34424656    14

Śledź STARLINK-32281 w czasie rzeczywistym z AllMySat

Download on the App Store